, SD

(GMT )
Rapid City

Weather History for KRAP - October, 2019

Change the Weather History Date:

Tuesday, October 22, 2019

  Actual Average Record
Temperature  
Mean Temperature 42 °F 46 °F  
Max Temperature 55 °F 59 °F 82 °F (2003)
Min Temperature 28 °F 32 °F 13 °F (1981)
Degree Days  
Heating Degree Days 23 20  
Month to date heating degree days 496 344  
Since 1 July heating degree days 671 568  
Cooling Degree Days 0 0  
Month to date cooling degree days 0 0  
Year to date cooling degree days 399 633  
Moisture  
Dew Point 30 °F    
Average Humidity 64    
Maximum Humidity 92    
Minimum Humidity 35    
Precipitation  
Precipitation 0.05 in 0.04 in 0.73 in (1995)
Month to date precipitation 1.15 1.10  
Year to date precipitation 26.86 15.02  
Sea Level Pressure  
Sea Level Pressure 29.94 in    
Wind  
Wind Speed 9 mph (WNW)    
Max Wind Speed 25 mph    
Max Gust Speed 34 mph    
Visibility 10 miles    
Events Rain    
T = Trace of Precipitation, MM = Missing Value Source: NWS Daily Summary

Daily Weather History Graph

Daily Weather History Graph

Search for Another Location

Airport or City:

Astronomy

Oct. 22, 2019 Rise Set
Actual Time 7:15 AM MDT 5:57 PM MDT
Civil Twilight 6:46 AM MDT 6:26 PM MDT
Nautical Twilight 6:12 AM MDT 7:00 PM MDT
Astronomical Twilight 5:38 AM MDT 7:33 PM MDT
Moon 12:10 AM MDT (10/22) 3:24 PM MDT (10/22)
Length of Visible Light 11h 40m
Length of Day
10h 41m
Last Quarter, 36% of the Moon is Illuminated
Oct 22
Last Quarter
Oct 27
New
Nov 4
First Quarter
Nov 12
Full
Nov 19
Last Quarter

Hourly Weather History & Observations

Time (MDT) Temp. Windchill Dew Point Humidity Pressure Visibility Wind Dir Wind Speed Gust Speed Precip Events Conditions
12:52 AM 33.1 °F 26.9 °F 25.0 °F 72% 30.05 in 10.0 mi NW 6.9 mph - N/A   Scattered Clouds
1:52 AM 32.0 °F 27.5 °F 25.0 °F 75% 30.05 in 10.0 mi SW 4.6 mph - N/A   Clear
2:52 AM 28.0 °F 21.7 °F 24.1 °F 85% 30.06 in 10.0 mi WNW 5.8 mph - N/A   Scattered Clouds
3:52 AM 34.0 °F 27.2 °F 26.1 °F 73% 30.04 in 10.0 mi West 8.1 mph - N/A   Scattered Clouds
4:52 AM 28.9 °F 21.9 °F 23.0 °F 78% 30.05 in 10.0 mi WNW 6.9 mph - N/A   Scattered Clouds
5:52 AM 33.1 °F 28.7 °F 27.0 °F 78% 30.05 in 10.0 mi West 4.6 mph - N/A   Overcast
6:52 AM 36.0 °F 32.1 °F 27.0 °F 70% 30.04 in 10.0 mi WSW 4.6 mph - N/A   Overcast
7:52 AM 37.0 °F 31.6 °F 28.9 °F 73% 30.04 in 10.0 mi West 6.9 mph - N/A   Overcast
8:52 AM 43.0 °F 37.7 °F 28.9 °F 58% 30.04 in 10.0 mi West 9.2 mph - N/A   Partly Cloudy
9:52 AM 48.9 °F - 27.0 °F 43% 30.01 in 10.0 mi NW 18.4 mph 29.9 mph N/A   Clear
10:52 AM 51.1 °F - 27.0 °F 39% 29.99 in 10.0 mi NW 19.6 mph 26.5 mph N/A   Clear
11:52 AM 53.1 °F - 26.1 °F 35% 29.97 in 10.0 mi NW 20.7 mph 28.8 mph N/A   Clear
12:52 PM 54.0 °F - 27.0 °F 35% 29.93 in 10.0 mi NNW 15.0 mph - N/A   Clear
1:52 PM 53.1 °F - 27.0 °F 37% 29.92 in 10.0 mi NNW 15.0 mph - N/A   Overcast
2:52 PM 51.1 °F - 28.0 °F 41% 29.91 in 10.0 mi West 10.4 mph - N/A   Overcast
3:52 PM 50.0 °F - 30.9 °F 48% 29.90 in 10.0 mi WSW 5.8 mph - N/A   Overcast
4:52 PM 45.0 °F 42.6 °F 37.9 °F 76% 29.90 in 10.0 mi NE 4.6 mph - 0.00 in Rain Light Rain
5:52 PM 44.1 °F 41.5 °F 39.0 °F 82% 29.87 in 10.0 mi East 4.6 mph - 0.00 in Rain Light Rain
6:52 PM 43.0 °F - 39.0 °F 86% 29.86 in 8.0 mi Calm Calm - 0.04 in Rain Light Rain
7:52 PM 37.9 °F 33.5 °F 36.0 °F 93% 29.82 in 10.0 mi South 5.8 mph - 0.01 in   Partly Cloudy
8:52 PM 37.9 °F 33.5 °F 35.1 °F 89% 29.79 in 10.0 mi South 5.8 mph - N/A   Clear
9:52 PM 35.1 °F 31.0 °F 33.1 °F 92% 29.78 in 10.0 mi Variable 4.6 mph - N/A   Scattered Clouds
10:52 PM 39.9 °F 32.9 °F 35.1 °F 83% 29.80 in 10.0 mi NW 11.5 mph - N/A   Overcast
11:52 PM 45.0 °F 37.9 °F 37.0 °F 74% 29.77 in 10.0 mi WNW 16.1 mph - 0.00 in   Overcast